Weather History for Midland, MI

Change the Weather History Date:

Sunday, February 10, 2013

  Actual Average (KMBS) Record (KMBS)
Temperature  
Mean Temperature 20 °F 23 °F  
Max Temperature 38 °F 30 °F 57 °F (2009)
Min Temperature 3 °F 16 °F -4 °F (2003)
Degree Days  
Heating Degree Days 44    
Month to date heating degree days  
Since 1 July heating degree days  
Cooling Degree Days 0    
Month to date cooling degree days  
Year to date cooling degree days  
Moisture  
Dew Point 19 °F    
Average Humidity 86    
Maximum Humidity 96    
Minimum Humidity 73    
Precipitation  
Precipitation 0.03 in 0.05 in 0.21 in (2000)
Month to date precipitation 0.46  
Year to date precipitation 2.17  
Snow  
Snow 0.00 in - - ()
Month to date snowfall  
Since 1 July snowfall  
Snow Depth -    
Sea Level Pressure  
Sea Level Pressure 29.98 in    
Wind  
Wind Speed 5 mph (East)    
Max Wind Speed 14 mph    
Max Gust Speed 22 mph    
Visibility 8 miles    
Events Rain    
T = Trace of Precipitation, MM = Missing Value Source: NWS Daily Summary

Daily Weather History Graph

Daily Weather History Graph

Search for Another Location

Airport:

Trip Planner

Search our weather history database for the weather conditions in past years. The results will help you decide how hot, cold, wet, or windy it might be!

Date:

Astronomy

Feb. 10, 2013 Rise Set
Actual Time 7:42 AM EST 6:00 PM EST
Civil Twilight 7:12 AM EST 6:30 PM EST
Nautical Twilight 6:38 AM EST 7:04 PM EST
Astronomical Twilight 6:05 AM EST 7:37 PM EST
Moon 7:29 AM EST (2/10) 6:54 PM EST (2/10)
Length of Visible Light 11h 18m
Length of Day
10h 18m
New Moon, 0% of the Moon is Illuminated
Feb 10
New Moon
Feb 17
First Quarter
Feb 25
Full
Mar 4
Last Quarter
Mar 11
New

Hourly Weather History & Observations

Time (EST) Temp. Windchill Dew Point Humidity Pressure Visibility Wind Dir Wind Speed Gust Speed Precip Events Conditions
12:13 AM 7.2 °F -3.0 °F 4.3 °F 88% 30.24 in 10.0 mi ENE 5.8 mph - N/A   Clear
12:34 AM 8.8 °F 2.2 °F 6.3 °F 89% 30.24 in 10.0 mi East 3.5 mph - N/A   Clear
12:54 AM 9.7 °F 1.4 °F 7.3 °F 90% 30.23 in 10.0 mi East 4.6 mph - N/A   Clear
1:13 AM 7.5 °F -2.6 °F 4.8 °F 89% 30.23 in 7.0 mi ENE 5.8 mph - N/A   Clear
1:34 AM 10.0 °F 3.6 °F 7.5 °F 90% 30.22 in 10.0 mi East 3.5 mph - N/A   Clear
1:54 AM 11.3 °F - 8.8 °F 90% 30.21 in 7.0 mi Calm Calm - N/A   Clear
2:13 AM 7.3 °F - 4.3 °F 87% 30.21 in 7.0 mi Calm Calm - N/A   Clear
2:34 AM 7.7 °F 1.0 °F 4.6 °F 87% 30.20 in 5.0 mi ENE 3.5 mph - N/A   Clear
3:14 AM 7.9 °F -0.7 °F 5.2 °F 89% 30.20 in 5.0 mi East 4.6 mph - N/A   Clear
3:34 AM 8.4 °F 1.8 °F 5.7 °F 89% 30.19 in 5.0 mi East 3.5 mph - N/A   Clear
3:54 AM 7.2 °F 0.3 °F 4.3 °F 88% 30.19 in 3.0 mi East 3.5 mph - N/A   Clear
4:14 AM 9.9 °F 1.6 °F 7.3 °F 90% 30.18 in 4.0 mi East 4.6 mph - N/A   Clear
4:34 AM 8.6 °F - 5.9 °F 89% 30.18 in 3.0 mi Calm Calm - N/A   Clear
4:53 AM 8.4 °F - 5.7 °F 89% 30.18 in 1.0 mi Calm Calm - N/A   Mist
5:14 AM 7.9 °F - 5.0 °F 88% 30.18 in 2.5 mi Calm Calm - N/A   Clear
5:53 AM 6.8 °F - 3.2 °F 85% 30.18 in 7.0 mi Calm Calm - N/A   Clear
6:14 AM 6.3 °F - 3.2 °F 87% 30.18 in 10.0 mi Calm Calm - N/A   Clear
6:34 AM 7.7 °F - 5.2 °F 89% 30.18 in 10.0 mi Calm Calm - N/A   Clear
6:54 AM 8.4 °F 1.8 °F 5.9 °F 89% 30.17 in 7.0 mi East 3.5 mph - N/A   Clear
7:14 AM 8.6 °F 2.0 °F 5.9 °F 89% 30.16 in 7.0 mi ENE 3.5 mph - N/A   Clear
7:34 AM 5.4 °F - 2.5 °F 88% 30.17 in 10.0 mi Calm Calm - N/A   Clear
7:54 AM 6.1 °F -2.8 °F 3.0 °F 87% 30.16 in 7.0 mi ENE 4.6 mph - N/A   Clear
8:14 AM 3.4 °F - 0.1 °F 86% 30.15 in 10.0 mi Calm Calm - N/A   Clear
8:33 AM 5.4 °F - 2.3 °F 87% 30.15 in 10.0 mi Calm Calm - N/A   Clear
8:54 AM 8.1 °F - 5.2 °F 88% 30.13 in 10.0 mi Calm Calm - N/A   Clear
9:14 AM 9.3 °F - 6.3 °F 87% 30.12 in 10.0 mi Calm Calm - N/A   Clear
9:34 AM 14.2 °F 5.3 °F 12.6 °F 93% 30.10 in 7.0 mi ENE 5.8 mph - N/A   Clear
9:54 AM 19.2 °F 11.3 °F 18.0 °F 95% 30.07 in 10.0 mi NE 5.8 mph - N/A   Mostly Cloudy
10:14 AM 18.3 °F 7.3 °F 16.7 °F 93% 30.07 in 10.0 mi ENE 9.2 mph - N/A   Mostly Cloudy
10:34 AM 18.9 °F - 17.6 °F 95% 30.08 in 10.0 mi Calm Calm - N/A   Mostly Cloudy
10:54 AM - - - N/A% 30.09 in 10.0 mi East 5.8 mph - N/A   Overcast
11:14 AM 21.2 °F 14.9 °F 20.1 °F 96% 30.08 in 10.0 mi East 4.6 mph - N/A   Overcast
11:34 AM 21.9 °F 15.7 °F 20.8 °F 96% 30.08 in 10.0 mi East 4.6 mph - N/A   Overcast
11:54 AM 23.0 °F 15.8 °F 21.2 °F 93% 30.07 in 10.0 mi East 5.8 mph - N/A   Overcast
12:14 PM 25.0 °F 20.7 °F 21.9 °F 88% 30.07 in 10.0 mi ENE 3.5 mph - N/A   Overcast
12:34 PM 26.2 °F 20.7 °F 20.7 °F 79% 30.04 in 10.0 mi ENE 4.6 mph - N/A   Overcast
12:54 PM 27.3 °F 19.9 °F 21.0 °F 77% 30.01 in 10.0 mi ENE 6.9 mph - N/A   Overcast
1:14 PM 28.8 °F 25.0 °F 21.7 °F 75% 29.99 in 10.0 mi East 3.5 mph - N/A   Overcast
1:34 PM 30.2 °F 25.4 °F 22.6 °F 73% 29.97 in 10.0 mi East 4.6 mph - N/A   Overcast
1:55 PM 30.7 °F 24.9 °F 23.0 °F 73% 29.96 in 10.0 mi ENE 5.8 mph - N/A   Overcast
2:14 PM 30.7 °F 24.1 °F 23.4 °F 74% 29.95 in 10.0 mi East 6.9 mph - N/A   Overcast
2:34 PM 31.1 °F 26.4 °F 23.9 °F 75% 29.94 in 10.0 mi ESE 4.6 mph - N/A   Overcast
2:54 PM 31.5 °F 24.9 °F 23.9 °F 74% 29.92 in 10.0 mi East 6.9 mph - N/A   Overcast
3:14 PM 32.0 °F 26.4 °F 24.8 °F 75% 29.92 in 10.0 mi ESE 5.8 mph - N/A   Overcast
3:34 PM 32.0 °F 25.6 °F 25.7 °F 78% 29.89 in 10.0 mi ENE 6.9 mph - N/A   Overcast
3:54 PM 32.5 °F 26.2 °F 26.6 °F 79% 29.88 in 10.0 mi East 6.9 mph - N/A   Overcast
4:14 PM 33.3 °F 26.4 °F 27.5 °F 79% 29.86 in 10.0 mi ENE 8.1 mph - N/A   Overcast
4:34 PM 35.2 °F 28.8 °F 27.9 °F 74% 29.86 in 10.0 mi East 8.1 mph - N/A   Overcast
4:54 PM 35.8 °F 30.1 °F 28.2 °F 74% 29.84 in 7.0 mi ESE 6.9 mph - N/A   Light Drizzle
5:14 PM 35.6 °F 28.6 °F 28.9 °F 77% 29.82 in 7.0 mi East 9.2 mph - N/A   Overcast
5:34 PM 35.6 °F 28.6 °F 29.3 °F 78% 29.81 in 10.0 mi East 9.2 mph - N/A   Overcast
5:54 PM 34.9 °F 28.3 °F 29.7 °F 81% 29.80 in 10.0 mi ESE 8.1 mph - N/A   Overcast
6:14 PM 34.9 °F 27.1 °F 29.7 °F 81% 29.77 in 10.0 mi East 10.4 mph - N/A   Overcast
6:34 PM 34.9 °F 28.3 °F 30.0 °F 82% 29.77 in 10.0 mi East 8.1 mph - N/A   Overcast
6:54 PM 34.9 °F 28.3 °F 30.9 °F 85% 29.76 in 7.0 mi East 8.1 mph - N/A   Overcast
7:14 PM 34.9 °F 29.0 °F 31.6 °F 88% 29.77 in 7.0 mi ESE 6.9 mph - 0.01 in   Overcast
7:34 PM 35.4 °F 28.4 °F 32.0 °F 87% 29.76 in 7.0 mi SE 9.2 mph 17.3 mph 0.01 in   Overcast
7:54 PM 35.6 °F 28.0 °F 32.7 °F 89% 29.75 in 3.0 mi SE 10.4 mph - 0.01 in   Overcast
8:14 PM 36.0 °F 27.5 °F 33.1 °F 89% 29.73 in 4.0 mi SE 12.7 mph 20.7 mph N/A   Overcast
8:35 PM 35.8 °F 26.9 °F 33.4 °F 91% 29.71 in 3.0 mi SE 13.8 mph 20.7 mph 0.01 in   Overcast
8:54 PM 35.6 °F 27.1 °F 33.8 °F 93% 29.69 in 3.0 mi SE 12.7 mph 18.4 mph 0.02 in   Overcast
9:14 PM 36.0 °F 27.5 °F 34.3 °F 94% 29.68 in 3.0 mi SE 12.7 mph - N/A   Overcast
9:35 PM 36.5 °F 28.2 °F 34.7 °F 93% 29.68 in 5.0 mi SSE 12.7 mph 16.1 mph N/A Rain Light Rain
9:54 PM 36.7 °F 29.4 °F 34.7 °F 93% 29.66 in 5.0 mi SE 10.4 mph 21.9 mph N/A   Overcast
10:14 PM 36.5 °F 29.7 °F 34.7 °F 93% 29.65 in 5.0 mi SSE 9.2 mph 19.6 mph N/A   Drizzle
10:35 PM 36.7 °F 31.2 °F 35.2 °F 95% 29.64 in 7.0 mi SSE 6.9 mph - N/A Rain Light Rain
10:54 PM 36.9 °F 30.7 °F 35.6 °F 95% 29.64 in 5.0 mi SSE 8.1 mph - N/A   Light Drizzle
11:14 PM 37.6 °F 33.1 °F 36.0 °F 94% 29.62 in 10.0 mi SSE 5.8 mph - N/A   Overcast
11:35 PM 38.3 °F 33.9 °F 36.5 °F 93% 29.61 in 10.0 mi SSE 5.8 mph - N/A   Overcast
11:54 PM 38.5 °F 33.4 °F 36.7 °F 93% 29.60 in 10.0 mi South 6.9 mph - N/A   Overcast